STARLINK-37615, 69030

Orbit data source: Space-Track

STARLINK-37615, 69030 is a payload satellite owned by SpaceX/Seattle (US) in SSO that was launched on Wed, 06 May 2026 UTC via an FALCON 9 launch vehicle from the Air Force Western Test Range (AFWTR). Payload-class satellites include a variety of spacecraft equipped with specific instruments for various scientific and technological missions. These include communications satellites like Starlink; space stations such as the ISS; scientific satellites like the Hubble; Earth observation satellites from companies like Planet Labs, Umbra, and HawkEye 360; GPS; miniature CubeSats for education and research; and military/defense satellites.

Loading next visibility...
Identifier
69030, 2026-101F
Orbit
SSO
Country
Flag of USUS
Related business
Manufacturer
SpaceX/Seattle
Mission
Operational Commercial Communications
Bus & Motor
STARLINK V2MO, Unknown motor
Mass
575 kg wet, ~530 kg dry
Launch date (UTC)
2026-05-06 (3 months ago)
Launch vehicle
FALCON 9
Launch site
Air Force Western Test Range (AFWTR)
Object type
Payload
Rocket body
Debris
Shape & HBR
Box + 2 Pan, 17.7 m
Radar Cross Section
36.964 m², Large (>1 m²)

Expand to show TLE details & history
Last TLE update: 14 hours ago

TLE from 14 hours ago
0 STARLINK-37615
1 69030U 26101F   26206.56377138  .00037467  00000-0  11556-2 0  9991
2 69030  97.2865  60.8628 0001965  88.9003 271.2465 15.33487233 12454
Epoch: 2026-07-25T13:31Z
TLE epoch observation values (Epoch: 2026-07-25T13:31:49.847Z)
Latitude
Longitude
-85.36915°
Altitude
468.501 km
Speed
7.632 km/s
True Right ascension
04h 03m 27s
True Declination
0° 00' 00"
Sunlit
Object was in daylight at epoch
Visualization orbit readout
Latitude
Unknown
Longitude
Unknown
Altitude
Unknown
Speed
Unknown
Apparent Right ascension
Unknown
Apparent Declination
Unknown
Sunlit
N/A
Visualization observer readout
Local Sidereal Time
16:19:11
Azimuth
Unknown
Elevation
Unknown
Doppler factor
Unknown
Orbital elements
Apogee altitude
463.704 km
Perigee altitude
461.016 km
Semi-major axis
6,840.497 km
Eccentricity
0.0002
Inclination
97.2865°
RAAN
60.8628°
Arg. of periapsis
88.9003°
True anomaly
271.22399°
Mean anomaly
271.2465°
Eccentric anomaly
271.23524°
Mean motion
3.83629 °/min
Orbital period
93.84 mins
BSTAR
0.0011556
Loading maneuver chart data...
Computing Atmospheric mass density...
Loading historical data...
Loading historical data...
Loading historical data...
Loading historical data...
Loading historical data...
Loading historical data...
Loading historical data...

Documentation

Showing up to 5 results
|